weather.gov     
National Weather Service

Terminal Aerodrome Forecast
NWS Homepage
This page is being discontinued on March 12, 2014.
The same data is available at this site. Please update your bookmarks.
Thank you, and we apologize for the inconvenience.
Please send an email to SR-SRH.Webmaster@noaa.gov with any concerns.


Current Version
Previous Version:    01  02  03  04  05  06  07  08  09  10  11  12  13  14  15  16  17  18  19  20  21  22  23  24  25  26  27  28  29  30  
   31  
[Printable]
176
FTUS46 KSEW 271100
TAFPAE
TAF
KPAE 271129Z 2712/2812 19006KT P6SM OVC018
      TEMPO 2716/2720 BKN009 OVC015
     FM272100 17004KT P6SM OVC020
      TEMPO 2721/2801 4SM -RA BR OVC007
     FM280300 34004KT P6SM OVC015
     FM280600 VRB03KT P6SM OVC008=


U.S. Dept. of Commerce
NOAA National Weather Service
1325 East West Highway
Silver Spring, MD 20910
E-mail: w-nws.webmaster@noaa.gov
Page last modified: May 16, 2007
NATIONAL WEATHER SERVICE: for Safety, for Work, for Fun - FOR LIFE